Hoolehua, HI

5:04 AM HST on February 21, 2017 (GMT -1000)
Molokai

Weather History for PHMK - July, 2013

Change the Weather History Date:

Saturday, July 20, 2013

  Actual Average Record
Temperature  
Mean Temperature 78 °F -  
Max Temperature 84 °F 84 °F 89 °F (2016)
Min Temperature 72 °F 70 °F 64 °F (2004)
Cooling Degree Days 13    
Growing Degree Days 28 (Base 50)    
Moisture  
Dew Point 68 °F    
Average Humidity 75    
Maximum Humidity 91    
Minimum Humidity 56    
Precipitation  
Precipitation 0.00 in - - ()
Sea Level Pressure  
Sea Level Pressure 30.06 in    
Wind  
Wind Speed 11 mph (NE)    
Max Wind Speed 23 mph    
Max Gust Speed 29 mph    
Visibility 10 miles    
Events      
Averages and records for this station are not official NWS values.
T = Trace of Precipitation, MM = Missing Value Source: NWS Daily Summary

Daily Weather History Graph

Daily Weather History Graph

Search for Another Location

Airport or City:

Trip Planner

Search our weather history database for the weather conditions in past years. The results will help you decide how hot, cold, wet, or windy it might be!

Date:

Astronomy

Jul. 20, 2013 Rise Set
Actual Time 5:57 AM HST 7:11 PM HST
Civil Twilight 5:33 AM HST 7:35 PM HST
Nautical Twilight 5:04 AM HST 8:04 PM HST
Astronomical Twilight 4:35 AM HST 8:34 PM HST
Moon 5:27 PM HST (7/20) 3:48 AM HST (7/20)
Length of Visible Light 14h 02m
Length of Day
13h 14m
Waxing Gibbous, 95% of the Moon is Illuminated
Jul 20
Waxing Gibbous
Jul 22
Full
Jul 29
Last Quarter
Aug 6
New
Aug 14
First Quarter

Hourly Weather History & Observations

Time (HST) Temp. Heat Index Dew Point Humidity Pressure Visibility Wind Dir Wind Speed Gust Speed Precip Events Conditions
12:54 AM 73.0 °F - 70.0 °F 90% 30.08 in 10.0 mi NE 9.2 mph - N/A   Clear
1:54 AM 73.0 °F - 70.0 °F 90% 30.08 in 10.0 mi NE 11.5 mph 17.3 mph N/A   Clear
2:54 AM 73.0 °F - 70.0 °F 90% 30.06 in 10.0 mi NNE 8.1 mph - N/A   Clear
3:54 AM 72.0 °F - 69.1 °F 91% 30.06 in 10.0 mi NNE 5.8 mph - N/A   Clear
4:54 AM 72.0 °F - 69.1 °F 91% 30.05 in 10.0 mi NNE 5.8 mph - N/A   Clear
5:54 AM 72.0 °F - 69.1 °F 91% 30.07 in 10.0 mi NNE 3.5 mph - N/A   Partly Cloudy
6:54 AM 73.9 °F - 69.1 °F 85% 30.09 in 10.0 mi Variable 6.9 mph - N/A   Scattered Clouds
7:54 AM 77.0 °F - 68.0 °F 74% 30.09 in 10.0 mi NE 11.5 mph - N/A   Scattered Clouds
8:54 AM 78.1 °F - 68.0 °F 71% 30.09 in 10.0 mi NE 15.0 mph 21.9 mph N/A   Partly Cloudy
9:54 AM 81.0 °F 83.8 °F 68.0 °F 65% 30.09 in 10.0 mi NE 16.1 mph 24.2 mph N/A   Clear
10:54 AM 82.0 °F 84.9 °F 68.0 °F 62% 30.08 in 10.0 mi NE 17.3 mph 24.2 mph N/A   Partly Cloudy
11:54 AM 81.0 °F 83.3 °F 66.9 °F 62% 30.07 in 10.0 mi NNE 11.5 mph 25.3 mph N/A   Scattered Clouds
12:54 PM 84.0 °F 87.0 °F 68.0 °F 58% 30.06 in 10.0 mi NE 15.0 mph 25.3 mph N/A   Scattered Clouds
1:54 PM 82.9 °F 85.8 °F 68.0 °F 60% 30.05 in 10.0 mi NE 16.1 mph 27.6 mph N/A   Scattered Clouds
2:54 PM 82.9 °F 85.0 °F 66.0 °F 56% 30.04 in 10.0 mi NNE 13.8 mph 26.5 mph N/A   Scattered Clouds
3:54 PM 82.0 °F 84.9 °F 68.0 °F 62% 30.02 in 10.0 mi ENE 23.0 mph 28.8 mph N/A   Partly Cloudy
4:54 PM 80.1 °F 82.7 °F 68.0 °F 67% 30.01 in 10.0 mi NE 16.1 mph 27.6 mph N/A   Scattered Clouds
5:54 PM 78.1 °F - 68.0 °F 71% 30.01 in 10.0 mi NE 15.0 mph 27.6 mph N/A   Partly Cloudy
6:54 PM 75.9 °F - 68.0 °F 76% 30.03 in 10.0 mi NE 15.0 mph 25.3 mph N/A   Clear
7:54 PM 73.9 °F - 66.9 °F 79% 30.04 in 10.0 mi NE 12.7 mph 18.4 mph N/A   Clear
8:54 PM 73.9 °F - 66.0 °F 76% 30.05 in 10.0 mi NE 10.4 mph 18.4 mph N/A   Clear
9:54 PM 73.9 °F - 64.9 °F 73% 30.07 in 10.0 mi NE 11.5 mph 17.3 mph N/A   Clear
10:54 PM 73.9 °F - 64.9 °F 73% 30.06 in 10.0 mi ENE 8.1 mph 17.3 mph N/A   Clear
11:54 PM 73.0 °F - 64.9 °F 76% 30.05 in 10.0 mi NE 8.1 mph - N/A   Clear